Burlington, WA
on Tuesday, January 8, 2013

Tuesday
Previous Day Next Day
Daily Summary
 ActualAverage (KBLI)Record (KBLI)
Temperature
Mean Temperature °F 39°F  
Max Temperature 53°F 45°F 59°F (1986)
Min Temperature 39°F 33°F 14°F (1979)
Degree Days
Heating Degree Days 19 26  
Month to date heating degree days 214  
Cooling Degree Days 0 0  
Month to date cooling degree days 0  
Year to date cooling degree days 0  
Moisture
Dew Point 45°F   
Average Humidity 100    
Maximum Humidity 100    
Minimum Humidity 93    
Precipitation
Precipitation 0.29 in 0.16 in 0.91 in (1967)
Month to date precipitation 1.16  
Year to date precipitation 1.16  
Wind
Wind Speed 6 mph   
Max Wind Speed 21 mph   
Max Gust Speed 33 mph   
Visibility 7 miles   
Events     

Key: T is trace of precipitation, MM is missing value
Source: NWS Daily Summary
Time(PST)TemperatureDew PointHumidity Pressure Visibility Wind DirectionWind SpeedGust SpeedPrecipitationEvents Conditions
12:15 AM 42.8°F 42.8°F 100% 30.15 in 7.0 miles Calm Calm - 0.00 in   Scattered Clouds
12:35 AM 42.8°F 42.8°F 100% 30.15 in 6.0 miles WSW 4.6 mph - 0.00 in   Mostly Cloudy
12:55 AM 42.8°F 42.8°F 100% 30.16 in 6.0 miles SW 3.5 mph - 0.00 in   Mostly Cloudy
1:15 AM 44.6°F 42.8°F 93% 30.16 in 6.0 miles ESE 6.9 mph - 0.00 in   Partly Cloudy
1:35 AM 42.8°F 42.8°F 100% 30.16 in 5.0 miles Calm Calm - 0.00 in   Partly Cloudy
1:55 AM 41.0°F 41.0°F 100% 30.16 in 6.0 miles Calm Calm - 0.00 in   Partly Cloudy
2:15 AM 41.0°F 41.0°F 100% 30.15 in 6.0 miles Calm Calm - 0.00 in   Mostly Cloudy
2:35 AM 41.0°F 41.0°F 100% 30.16 in 6.0 miles Calm Calm - 0.00 in   Mostly Cloudy
2:55 AM 42.8°F 42.8°F 100% 30.16 in 6.0 miles Calm Calm - 0.00 in   Mostly Cloudy
3:15 AM 39.2°F 39.2°F 100% 30.16 in 5.0 miles NE 4.6 mph - 0.00 in   Mostly Cloudy
3:35 AM 41.0°F 41.0°F 100% 30.15 in 6.0 miles Calm Calm - 0.00 in   Overcast
3:55 AM 41.0°F 41.0°F 100% 30.14 in 6.0 miles Calm Calm - 0.00 in   Mostly Cloudy
4:15 AM 41.0°F 41.0°F 100% 30.13 in 5.0 miles NNW 3.5 mph - 0.00 in   Mostly Cloudy
4:35 AM 41.0°F 41.0°F 100% 30.13 in 6.0 miles Calm Calm - 0.00 in   Overcast
4:55 AM 41.0°F 41.0°F 100% 30.12 in 7.0 miles Calm Calm - 0.00 in   Overcast
5:15 AM 41.0°F 41.0°F 100% 30.12 in 7.0 miles NE 3.5 mph - 0.00 in   Overcast
5:35 AM 41.0°F 41.0°F 100% 30.11 in 7.0 miles East 3.5 mph - 0.00 in   Overcast
5:55 AM 41.0°F 41.0°F 100% 30.11 in 6.0 miles ENE 3.5 mph - 0.00 in   Overcast
6:15 AM 41.0°F 41.0°F 100% 30.10 in 5.0 miles Calm Calm - 0.00 in   Overcast
6:35 AM 42.8°F 42.8°F 100% 30.09 in 5.0 miles East 5.8 mph - 0.00 in   Overcast
6:55 AM 41.0°F 41.0°F 100% 30.08 in 5.0 miles NE 6.9 mph - 0.00 in   Overcast
7:15 AM 42.8°F 42.8°F 100% 30.06 in 5.0 miles NE 6.9 mph - 0.00 in   Overcast
7:35 AM 41.0°F 41.0°F 100% 30.06 in 4.0 miles East 6.9 mph - 0.02 in   Overcast
8:15 AM 42.8°F 42.8°F 100% 30.05 in 4.0 miles East 4.6 mph - 0.01 in   Overcast
8:35 AM 42.8°F 42.8°F 100% 30.05 in 3.0 miles ESE 5.8 mph - 0.03 in   Overcast
8:55 AM 42.8°F 42.8°F 100% 30.04 in 3.0 miles East 5.8 mph - 0.05 in   Overcast
9:15 AM 42.8°F 42.8°F 100% 30.03 in 3.0 miles ESE 9.2 mph - 0.01 in   Overcast
9:35 AM 41.0°F 41.0°F 100% 30.02 in 3.0 miles SE 6.9 mph - 0.02 in   Overcast
9:55 AM 41.0°F 41.0°F 100% 30.00 in 4.0 miles ESE 6.9 mph - 0.04 in   Overcast
10:15 AM 41.0°F 41.0°F 100% 29.99 in 4.0 miles SE 4.6 mph - 0.01 in   Overcast
10:35 AM 41.0°F 41.0°F 100% 29.98 in 3.0 miles East 5.8 mph - 0.03 in   Overcast
10:55 AM 41.0°F 41.0°F 100% 29.97 in 3.0 miles East 5.8 mph - 0.05 in   Overcast
11:15 AM 41.0°F 41.0°F 100% 29.95 in 3.0 miles East 5.8 mph - 0.02 in   Overcast
11:35 AM 41.0°F 41.0°F 100% 29.93 in 4.0 miles East 6.9 mph - 0.04 in   Overcast
11:55 AM 41.0°F 41.0°F 100% 29.92 in 3.0 miles East 8.1 mph - 0.06 in   Overcast
12:15 PM 42.8°F 42.8°F 100% 29.90 in 3.0 miles East 6.9 mph - 0.01 in   Overcast
12:35 PM 41.0°F 41.0°F 100% 29.90 in 3.0 miles ENE 4.6 mph - 0.04 in   Overcast
12:55 PM 42.8°F 42.8°F 100% 29.88 in 4.0 miles East 4.6 mph - 0.07 in   Overcast
1:15 PM 42.8°F 42.8°F 100% 29.87 in 5.0 miles East 8.1 mph - 0.00 in   Overcast
1:35 PM 42.8°F 42.8°F 100% 29.85 in 8.0 miles East 8.1 mph - 0.00 in   Overcast
1:55 PM 42.8°F 42.8°F 100% 29.84 in 8.0 miles East 6.9 mph - 0.00 in   Overcast
2:35 PM 42.8°F 42.8°F 100% 29.81 in 8.0 miles ESE 9.2 mph - 0.00 in   Overcast
2:55 PM 42.8°F 42.8°F 100% 29.81 in 8.0 miles ENE 11.5 mph - 0.00 in   Overcast
3:15 PM 42.8°F 42.8°F 100% 29.80 in 9.0 miles East 8.1 mph - 0.00 in   Overcast
3:35 PM 48.2°F 48.2°F 100% 29.77 in 8.0 miles SE 9.2 mph 20.7 mph 0.00 in   Overcast
3:55 PM 48.2°F 48.2°F 100% 29.75 in 8.0 miles SSE 15.0 mph 24.2 mph 0.00 in   Overcast
4:15 PM 50.0°F 50.0°F 100% 29.74 in 8.0 miles SSE 12.7 mph 18.4 mph 0.00 in   Overcast
4:35 PM 51.8°F 51.8°F 100% 29.73 in 10.0 miles SSE 11.5 mph 23.0 mph 0.00 in   Overcast
4:55 PM 51.8°F 51.8°F 100% 29.72 in 10.0 miles SSE 12.7 mph 21.9 mph 0.00 in   Overcast
5:15 PM 51.8°F 51.8°F 100% 29.71 in 10.0 miles South 13.8 mph 24.2 mph 0.00 in   Overcast
5:35 PM 51.8°F 51.8°F 100% 29.71 in 10.0 miles South 15.0 mph 23.0 mph 0.00 in   Overcast
5:55 PM 51.8°F 51.8°F 100% 29.70 in 10.0 miles South 19.6 mph 27.6 mph 0.00 in   Overcast
6:15 PM 51.8°F 51.8°F 100% 29.69 in 10.0 miles South 15.0 mph 26.5 mph 0.00 in   Overcast
6:35 PM 51.8°F 51.8°F 100% 29.68 in 10.0 miles South 19.6 mph 27.6 mph 0.00 in   Overcast
6:55 PM 53.6°F 51.8°F 94% 29.68 in 10.0 miles South 17.3 mph 27.6 mph 0.00 in   Overcast
7:15 PM 53.6°F 51.8°F 94% 29.69 in 10.0 miles South 19.6 mph 26.5 mph 0.00 in   Overcast
7:55 PM 51.8°F 51.8°F 100% 29.69 in 10.0 miles South 16.1 mph 27.6 mph 0.00 in   Overcast
8:15 PM 51.8°F 51.8°F 100% 29.68 in 9.0 miles South 19.6 mph 28.8 mph 0.00 in   Overcast
8:35 PM 51.8°F 51.8°F 100% 29.68 in 10.0 miles South 15.0 mph 26.5 mph 0.00 in   Overcast
8:55 PM 51.8°F 51.8°F 100% 29.68 in 9.0 miles South 18.4 mph 26.5 mph 0.00 in   Overcast
9:15 PM 51.8°F 51.8°F 100% 29.68 in 10.0 miles South 16.1 mph 26.5 mph 0.00 in   Overcast
9:35 PM 51.8°F 51.8°F 100% 29.67 in 9.0 miles South 16.1 mph 24.2 mph 0.00 in   Overcast
10:35 PM 51.8°F 50.0°F 94% 29.66 in 9.0 miles South 20.7 mph 33.4 mph 0.00 in   Overcast
10:55 PM 51.8°F 51.8°F 100% 29.67 in 9.0 miles South 16.1 mph 25.3 mph 0.00 in   Overcast
11:15 PM 51.8°F 50.0°F 94% 29.67 in 9.0 miles South 15.0 mph 24.2 mph 0.00 in   Overcast
11:35 PM 51.8°F 51.8°F 100% 29.67 in 8.0 miles South 17.3 mph 21.9 mph 0.00 in   Overcast
11:55 PM 51.8°F 51.8°F 100% 29.68 in 5.0 miles South 11.5 mph 21.9 mph 0.00 in   Overcast
Moon Phase
Jan. 08 Jan. 11 Jan. 18 Jan. 26 Feb. 03
Sunrise:07:59 AM (PST) Moon Rise:04:37 AM (PST)1/8
Sunset:04:33 PM (PST) Moon Set:01:41 PM (PST)1/8

Copyright © 2014 The Weather Underground, Inc.